Location: Georgenberg
(48.1500°N, 16.2500°E)
Time: 13:48:54
(UTC+01:00)

N. Korean satellite - Pass Details

Date: 04 December 2022
Orbit: 407 x 441 km, 97.3° (Epoch: 05 February)

Event Time Altitude Azimuth Distance (km) Brightness Sun altitude
Rises 16:28:26 0° 173° (S) 2,450 10.5 -4.6°
Reaches altitude 10° 16:30:28 10° 177° (S) 1,593 9.5 -4.9°
Maximum altitude 16:33:51 62° 259° (W) 526 7.1 -5.4°
Drops below altitude 10° 16:37:20 10° 341° (NNW) 1,634 9.2 -5.9°
Sets 16:39:26 0° 345° (NNW) 2,521 10.1 -6.2°
